"Period start","avg(HW err(1)/warn(2) (#))","avg(Visibility (m))","avg(Weather code (#))","avg(Precip intensity (mm/h))","min(HW err(1)/warn(2) (#))","max(HW err(1)/warn(2) (#))","std(HW err(1)/warn(2) (#))","med(HW err(1)/warn(2) (#))","min(Visibility (m))","max(Visibility (m))","std(Visibility (m))","med(Visibility (m))","min(Weather code (#))","max(Weather code (#))","std(Weather code (#))","med(Weather code (#))","min(Precip intensity (mm/h))","max(Precip intensity (mm/h))","std(Precip intensity (mm/h))","med(Precip intensity (mm/h))"
2013-10-21 00:00:00,2,49480,0,0.00,2,2,0,2,44796,50000,1561,50000,0,0,0,0,0.00,0.00,0.00,0.00
2013-10-21 00:10:00,2,49570,0,0.00,2,2,0,2,46096,50000,1164,50000,0,0,0,0,0.00,0.00,0.00,0.00
2013-10-21 00:20:00,2,49986,0,0.00,2,2,0,2,49860,50000,42,50000,0,0,0,0,0.00,0.00,0.00,0.00
2013-10-21 00:30:00,2,45533,0,0.00,2,2,0,2,35579,50000,5382,48118,0,0,0,0,0.00,0.00,0.00,0.00
2013-10-21 00:40:00,2,35818,0,0.00,2,2,0,2,20222,49642,7734,36719,0,0,0,0,0.00,0.00,0.00,0.00
2013-10-21 00:50:00,2,46555,0,0.00,2,2,0,2,34890,50000,4519,48080,0,0,0,0,0.00,0.00,0.00,0.00
2013-10-21 01:00:00,2,36248,0,0.00,2,2,0,2,28395,45451,4604,36566,0,0,0,0,0.00,0.00,0.00,0.00
2013-10-21 01:10:00,2,40912,0,0.00,2,2,0,2,22237,50000,11096,46750,0,0,0,0,0.00,0.00,0.00,0.00
2013-10-21 01:20:00,2,46584,0,0.00,2,2,0,2,37960,50000,3383,46948,0,0,0,0,0.00,0.00,0.00,0.00
2013-10-21 01:30:00,2,42511,0,0.00,2,2,0,2,29409,49227,7252,46565,0,0,0,0,0.00,0.00,0.00,0.00
2013-10-21 01:40:00,2,47101,0,0.00,2,2,0,2,38835,50000,3359,48569,0,0,0,0,0.00,0.00,0.00,0.00
2013-10-21 01:50:00,2,44087,0,0.00,2,2,0,2,34290,50000,5361,45350,0,0,0,0,0.00,0.00,0.00,0.00
2013-10-21 02:00:00,2,45902,0,0.00,2,2,0,2,39181,50000,4312,47266,0,0,0,0,0.00,0.00,0.00,0.00
2013-10-21 02:10:00,2,46100,0,0.00,2,2,0,2,36221,50000,4179,47104,0,0,0,0,0.00,0.00,0.00,0.00
2013-10-21 02:20:00,2,48582,0,0.00,2,2,0,2,41807,50000,2410,49664,0,0,0,0,0.00,0.00,0.00,0.00
2013-10-21 02:30:00,2,44216,0,0.00,2,2,0,2,37783,50000,4777,44452,0,0,0,0,0.00,0.00,0.00,0.00
2013-10-21 02:40:00,2,45204,0,0.00,2,2,0,2,32426,50000,5332,46410,0,0,0,0,0.00,0.00,0.00,0.00
2013-10-21 02:50:00,2,48269,0,0.00,2,2,0,2,43842,50000,1786,48433,0,0,0,0,0.00,0.00,0.00,0.00
2013-10-21 03:00:00,2,45904,0,0.00,2,2,0,2,36546,50000,4837,47554,0,0,0,0,0.00,0.00,0.00,0.00
2013-10-21 03:10:00,2,49011,0,0.00,2,2,0,2,44311,50000,2006,50000,0,0,0,0,0.00,0.00,0.00,0.00
2013-10-21 03:20:00,2,37065,0,0.00,2,2,0,2,26321,50000,8574,35764,0,0,0,0,0.00,0.00,0.00,0.00
2013-10-21 03:30:00,2,33155,0,0.00,2,2,0,2,20423,44847,7530,34058,0,0,0,0,0.00,0.00,0.00,0.00
2013-10-21 03:40:00,2,36042,0,0.00,2,2,0,2,21874,50000,9815,36353,0,0,0,0,0.00,0.00,0.00,0.00
2013-10-21 03:50:00,2,36805,0,0.00,2,2,0,2,23470,50000,8217,36338,0,0,0,0,0.00,0.00,0.00,0.00
2013-10-21 04:00:00,2,33968,0,0.00,2,2,0,2,18217,50000,12246,37058,0,0,0,0,0.00,0.00,0.00,0.00
2013-10-21 04:10:00,2,32626,0,0.00,2,2,0,2,15813,45123,10110,34836,0,0,0,0,0.00,0.00,0.00,0.00
2013-10-21 04:20:00,2,22652,0,0.00,2,2,0,2,14388,31749,6567,21756,0,0,0,0,0.00,0.00,0.00,0.00
2013-10-21 04:30:00,2,26253,0,0.00,2,2,0,2,11005,46446,11750,24424,0,0,0,0,0.00,0.00,0.00,0.00
2013-10-21 04:40:00,2,26377,0,0.00,2,2,0,2,14772,48799,9904,25199,0,0,0,0,0.00,0.00,0.00,0.00
2013-10-21 04:50:00,2,30035,0,0.00,2,2,0,2,16016,48900,13392,24022,0,0,0,0,0.00,0.00,0.00,0.00
2013-10-21 05:00:00,2,31304,0,0.00,2,2,0,2,18678,50000,8371,32016,0,0,0,0,0.00,0.00,0.00,0.00
2013-10-21 05:10:00,2,44133,0,0.00,2,2,0,2,30344,50000,7364,48512,0,0,0,0,0.00,0.00,0.00,0.00
2013-10-21 05:20:00,2,41275,0,0.00,2,2,0,2,33152,50000,5199,39962,0,0,0,0,0.00,0.00,0.00,0.00
2013-10-21 05:30:00,2,41398,0,0.00,2,2,0,2,24265,50000,8486,44959,0,0,0,0,0.00,0.00,0.00,0.00
2013-10-21 05:40:00,2,48380,0,0.00,2,2,0,2,42657,50000,2145,49172,0,0,0,0,0.00,0.00,0.00,0.00
2013-10-21 05:50:00,2,45641,0,0.00,2,2,0,2,39095,50000,3781,46120,0,0,0,0,0.00,0.00,0.00,0.00
2013-10-21 06:00:00,2,49576,0,0.00,2,2,0,2,48014,50000,689,50000,0,0,0,0,0.00,0.00,0.00,0.00
2013-10-21 06:10:00,2,49774,0,0.00,2,2,0,2,48436,50000,492,50000,0,0,0,0,0.00,0.00,0.00,0.00
2013-10-21 06:20:00,2,50000,0,0.00,2,2,0,2,50000,50000,0,50000,0,0,0,0,0.00,0.00,0.00,0.00
2013-10-21 06:30:00,2,49885,0,0.00,2,2,0,2,49079,50000,277,50000,0,0,0,0,0.00,0.00,0.00,0.00
2013-10-21 06:40:00,2,50000,0,0.00,2,2,0,2,50000,50000,0,50000,0,0,0,0,0.00,0.00,0.00,0.00
2013-10-21 06:50:00,2,50000,0,0.00,2,2,0,2,50000,50000,0,50000,0,0,0,0,0.00,0.00,0.00,0.00
2013-10-21 07:00:00,2,50000,0,0.00,2,2,0,2,50000,50000,0,50000,0,0,0,0,0.00,0.00,0.00,0.00
2013-10-21 07:10:00,2,50000,0,0.00,2,2,0,2,50000,50000,0,50000,0,0,0,0,0.00,0.00,0.00,0.00
2013-10-21 07:20:00,2,50000,0,0.00,2,2,0,2,50000,50000,0,50000,0,0,0,0,0.00,0.00,0.00,0.00
2013-10-21 07:30:00,2,50000,0,0.00,2,2,0,2,50000,50000,0,50000,0,0,0,0,0.00,0.00,0.00,0.00
2013-10-21 07:40:00,2,50000,0,0.00,2,2,0,2,50000,50000,0,50000,0,0,0,0,0.00,0.00,0.00,0.00
2013-10-21 07:50:00,2,50000,0,0.00,2,2,0,2,50000,50000,0,50000,0,0,0,0,0.00,0.00,0.00,0.00
2013-10-21 08:00:00,2,50000,0,0.00,2,2,0,2,50000,50000,0,50000,0,0,0,0,0.00,0.00,0.00,0.00
2013-10-21 08:10:00,2,50000,0,0.00,2,2,0,2,50000,50000,0,50000,0,0,0,0,0.00,0.00,0.00,0.00
2013-10-21 08:20:00,2,50000,0,0.00,2,2,0,2,50000,50000,0,50000,0,0,0,0,0.00,0.00,0.00,0.00
2013-10-21 08:30:00,2,50000,0,0.00,2,2,0,2,50000,50000,0,50000,0,0,0,0,0.00,0.00,0.00,0.00
2013-10-21 08:40:00,2,50000,0,0.00,2,2,0,2,50000,50000,0,50000,0,0,0,0,0.00,0.00,0.00,0.00
2013-10-21 08:50:00,2,50000,0,0.00,2,2,0,2,50000,50000,0,50000,0,0,0,0,0.00,0.00,0.00,0.00
2013-10-21 09:00:00,2,43935,0,0.00,2,2,0,2,31530,50000,6222,47034,0,0,0,0,0.00,0.00,0.00,0.00
2013-10-21 09:10:00,2,49493,0,0.00,2,2,0,2,44933,50000,1520,50000,0,0,0,0,0.00,0.00,0.00,0.00
2013-10-21 09:20:00,2,43967,0,0.00,2,2,0,2,32720,50000,6490,46733,0,0,0,0,0.00,0.00,0.00,0.00
2013-10-21 09:30:00,2,42348,0,0.00,2,2,0,2,16242,50000,9578,46026,0,0,0,0,0.00,0.00,0.00,0.00
2013-10-21 09:40:00,2,46847,0,0.00,2,2,0,2,33256,50000,4944,49282,0,0,0,0,0.00,0.00,0.00,0.00
2013-10-21 09:50:00,2,48469,0,0.00,2,2,0,2,44566,50000,1875,49346,0,0,0,0,0.00,0.00,0.00,0.00
2013-10-21 10:00:00,2,48696,0,0.00,2,2,0,2,43623,50000,2020,50000,0,0,0,0,0.00,0.00,0.00,0.00
2013-10-21 10:10:00,2,38440,0,0.00,2,2,0,2,28208,48117,5046,38532,0,0,0,0,0.00,0.00,0.00,0.00
2013-10-21 10:20:00,2,47311,0,0.00,2,2,0,2,39375,50000,3710,49370,0,0,0,0,0.00,0.00,0.00,0.00
2013-10-21 10:30:00,2,49592,0,0.00,2,2,0,2,45925,50000,1222,50000,0,0,0,0,0.00,0.00,0.00,0.00
2013-10-21 10:40:00,2,50000,0,0.00,2,2,0,2,50000,50000,0,50000,0,0,0,0,0.00,0.00,0.00,0.00
2013-10-21 10:50:00,2,50000,0,0.00,2,2,0,2,50000,50000,0,50000,0,0,0,0,0.00,0.00,0.00,0.00
2013-10-21 11:00:00,2,49879,0,0.00,2,2,0,2,49191,50000,258,50000,0,0,0,0,0.00,0.00,0.00,0.00
2013-10-21 11:10:00,2,50000,0,0.00,2,2,0,2,50000,50000,0,50000,0,0,0,0,0.00,0.00,0.00,0.00
2013-10-21 11:20:00,2,49770,0,0.00,2,2,0,2,48548,50000,479,50000,0,0,0,0,0.00,0.00,0.00,0.00
2013-10-21 11:30:00,2,49948,0,0.00,2,2,0,2,49478,50000,157,50000,0,0,0,0,0.00,0.00,0.00,0.00
2013-10-21 11:40:00,2,50000,0,0.00,2,2,0,2,50000,50000,0,50000,0,0,0,0,0.00,0.00,0.00,0.00
2013-10-21 11:50:00,2,49658,0,0.00,2,2,0,2,47076,50000,873,50000,0,0,0,0,0.00,0.00,0.00,0.00
2013-10-21 12:00:00,2,28654,0,0.00,2,2,0,2,13626,49028,12990,24462,0,0,0,0,0.00,0.00,0.00,0.00
2013-10-21 12:10:00,2,49088,0,0.00,2,2,0,2,42894,50000,2128,50000,0,0,0,0,0.00,0.00,0.00,0.00
2013-10-21 12:20:00,2,45149,0,0.00,2,2,0,2,39202,50000,3752,45196,0,0,0,0,0.00,0.00,0.00,0.00
2013-10-21 12:30:00,2,33064,0,0.00,2,2,0,2,16422,43298,7676,33692,0,0,0,0,0.00,0.00,0.00,0.00
2013-10-21 12:40:00,2,30594,0,0.00,2,2,0,2,8669,44429,10608,31539,0,0,0,0,0.00,0.00,0.00,0.00
2013-10-21 12:50:00,2,40598,0,0.00,2,2,0,2,29142,50000,7197,41403,0,0,0,0,0.00,0.00,0.00,0.00
2013-10-21 13:00:00,2,44330,0,0.00,2,2,0,2,20985,50000,8710,48711,0,0,0,0,0.00,0.00,0.00,0.00
2013-10-21 13:10:00,2,46558,0,0.00,2,2,0,2,25572,50000,7541,50000,0,0,0,0,0.00,0.00,0.00,0.00
2013-10-21 13:20:00,2,50000,0,0.00,2,2,0,2,50000,50000,0,50000,0,0,0,0,0.00,0.00,0.00,0.00
2013-10-21 13:30:00,2,44698,0,0.00,2,2,0,2,29009,50000,7770,49850,0,0,0,0,0.00,0.00,0.00,0.00
2013-10-21 13:40:00,2,6108,4,0.00,2,2,0,2,1781,19032,5226,4229,0,10,5,0,0.00,0.00,0.00,0.00
2013-10-21 13:50:00,2,2066,10,0.00,2,2,0,2,1534,3487,555,1894,10,10,0,10,0.00,0.00,0.00,0.00
2013-10-21 14:00:00,2,4628,10,0.00,2,2,0,2,2229,9723,2287,4154,10,10,0,10,0.00,0.00,0.00,0.00
2013-10-21 14:10:00,2,6393,10,0.00,2,2,0,2,2988,11352,2719,5607,10,10,0,10,0.00,0.00,0.00,0.00
2013-10-21 14:20:00,2,6544,10,0.00,2,2,0,2,4425,10568,1643,6447,10,10,0,10,0.00,0.00,0.00,0.00
2013-10-21 14:30:00,2,7492,10,0.00,2,2,0,2,5497,13328,2533,6356,10,10,0,10,0.00,0.00,0.00,0.00
2013-10-21 14:40:00,2,5110,10,0.00,2,2,0,2,3093,13503,3064,3788,10,10,0,10,0.00,0.00,0.00,0.00
2013-10-21 14:50:00,2,4632,10,0.00,2,2,0,2,2843,7101,1217,4608,10,10,0,10,0.00,0.00,0.00,0.00
2013-10-21 15:00:00,2,2305,22,0.04,2,2,0,2,693,4037,1301,2445,10,71,24,10,0.00,0.25,0.08,0.00
2013-10-21 15:10:00,2,642,78,0.37,2,2,0,2,497,825,106,627,77,78,0,78,0.05,1.10,0.29,0.33
2013-10-21 15:20:00,2,431,73,0.99,2,2,0,2,290,656,107,392,72,77,2,72,0.35,1.80,0.42,0.90
2013-10-21 15:30:00,2,321,73,2.57,2,2,0,2,204,440,84,312,72,73,0,73,0.85,5.30,1.46,1.93
2013-10-21 15:40:00,2,441,73,1.52,2,2,0,2,247,610,112,446,72,73,0,73,0.60,2.85,0.75,1.25
2013-10-21 15:50:00,2,595,72,0.76,2,2,0,2,422,776,105,600,72,72,0,72,0.25,1.25,0.33,0.78
2013-10-21 16:00:00,2,450,72,1.72,2,2,0,2,250,763,129,444,72,73,0,72,0.25,4.35,1.20,1.30
2013-10-21 16:10:00,2,973,72,0.47,2,2,0,2,470,1772,462,777,71,72,0,72,0.00,1.30,0.42,0.40
2013-10-21 16:20:00,2,8287,33,0.00,2,2,0,2,3267,13601,3265,8868,20,71,20,20,0.00,0.00,0.00,0.00
2013-10-21 16:30:00,2,7830,20,0.00,2,2,0,2,5476,11623,1793,7804,20,20,0,20,0.00,0.00,0.00,0.00
2013-10-21 16:40:00,2,6201,71,0.00,2,2,0,2,1692,13536,3855,5078,20,78,17,78,0.00,0.00,0.00,0.00
2013-10-21 16:50:00,2,14161,20,0.00,2,2,0,2,6738,21317,4687,13002,20,20,0,20,0.00,0.00,0.00,0.00
2013-10-21 17:00:00,2,32980,20,0.00,2,2,0,2,26533,40396,4555,32702,20,20,0,20,0.00,0.00,0.00,0.00
2013-10-21 17:10:00,2,36075,20,0.00,2,2,0,2,14592,50000,15261,46541,20,20,0,20,0.00,0.00,0.00,0.00
2013-10-21 17:20:00,2,6868,13,0.00,2,2,0,2,4300,10813,2036,6382,0,20,6,10,0.00,0.00,0.00,0.00
2013-10-21 17:30:00,2,7808,10,0.00,2,2,0,2,2932,13563,3385,8006,10,10,0,10,0.00,0.00,0.00,0.00
2013-10-21 17:40:00,2,1997,77,0.11,2,2,0,2,1072,3446,699,1874,71,78,3,78,0.00,0.55,0.15,0.05
2013-10-21 17:50:00,2,4106,75,0.01,2,2,0,2,2042,5909,1190,4416,71,78,3,78,0.00,0.10,0.03,0.00
2013-10-21 18:00:00,2,1357,75,0.30,2,2,0,2,592,2455,607,1066,71,78,3,77,0.00,1.10,0.32,0.17
2013-10-21 18:10:00,2,2948,42,0.02,2,2,0,2,1630,4637,983,2972,10,77,32,40,0.00,0.15,0.05,0.00
2013-10-21 18:20:00,2,1666,78,0.08,2,2,0,2,1087,2485,401,1584,77,78,0,78,0.00,0.20,0.06,0.05
2013-10-21 18:30:00,2,2031,56,0.09,2,2,0,2,1164,3784,701,1970,10,78,30,74,0.00,0.30,0.09,0.05
2013-10-21 18:40:00,2,3412,62,0.02,2,2,0,2,2065,6653,1372,2822,10,78,26,71,0.00,0.05,0.02,0.00
2013-10-21 18:50:00,2,3788,61,0.13,2,2,0,2,1055,8200,2414,2707,10,78,26,71,0.00,0.95,0.28,0.00
2013-10-21 19:00:00,2,1960,62,0.35,2,2,0,2,501,3416,822,2028,10,78,26,71,0.00,2.35,0.69,0.08
2013-10-21 19:10:00,2,1260,71,1.31,2,2,0,2,451,2021,615,1310,71,71,0,71,0.15,5.25,1.69,0.30
2013-10-21 19:20:00,2,1985,71,0.25,2,2,0,2,822,4407,1146,1685,71,71,0,71,0.00,1.05,0.32,0.12
2013-10-21 19:30:00,2,1602,65,0.72,2,2,0,2,502,2753,558,1536,10,71,18,71,0.00,4.55,1.36,0.15
2013-10-21 19:40:00,2,2875,62,0.04,2,2,0,2,1714,4676,852,2733,10,78,26,71,0.00,0.10,0.04,0.03
2013-10-21 19:50:00,2,4146,78,0.02,2,2,0,2,1940,7008,1518,4383,78,78,0,78,0.00,0.05,0.02,0.00
2013-10-21 20:00:00,2,3956,63,0.01,2,2,0,2,1729,6501,1251,3878,10,78,27,78,0.00,0.05,0.02,0.00
2013-10-21 20:10:00,2,3391,55,0.03,2,2,0,2,1805,8128,1746,2930,0,78,32,74,0.00,0.15,0.05,0.00
2013-10-21 20:20:00,2,2210,64,0.17,2,2,0,2,667,4233,962,2390,0,71,21,71,0.00,1.25,0.37,0.05
2013-10-21 20:30:00,2,1360,76,0.20,2,2,0,2,793,2078,328,1332,71,78,3,78,0.05,0.70,0.20,0.15
2013-10-21 20:40:00,2,1098,71,0.34,2,2,0,2,861,1316,156,1105,71,71,0,71,0.15,0.55,0.14,0.35
2013-10-21 20:50:00,2,1691,75,0.11,2,2,0,2,1135,2577,432,1614,71,77,3,77,0.00,0.35,0.12,0.05
2013-10-21 21:00:00,2,3335,16,0.01,2,2,0,2,1502,4573,866,3400,10,71,18,10,0.00,0.10,0.03,0.00
2013-10-21 21:10:00,2,7745,10,0.00,2,2,0,2,5048,13731,2445,6998,10,10,0,10,0.00,0.00,0.00,0.00
2013-10-21 21:20:00,2,10149,43,0.00,2,2,0,2,2747,15765,3546,9944,10,78,33,40,0.00,0.00,0.00,0.00
2013-10-21 21:30:00,2,7382,77,0.10,2,2,0,2,4359,11384,2005,7312,71,78,2,78,0.00,0.50,0.16,0.00
2013-10-21 21:40:00,2,4787,71,0.11,2,2,0,2,2984,6402,995,4818,71,71,0,71,0.00,0.50,0.15,0.08
2013-10-21 21:50:00,2,2904,71,0.12,2,2,0,2,1403,4161,974,2993,71,71,0,71,0.05,0.25,0.07,0.12
2013-10-21 22:00:00,2,1460,71,0.71,2,2,0,2,952,2040,341,1414,71,71,0,71,0.30,1.40,0.32,0.60
2013-10-21 22:10:00,2,1150,71,1.59,2,2,0,2,771,1750,262,1076,71,71,0,71,0.45,2.65,0.67,1.80
2013-10-21 22:20:00,2,1172,71,1.91,2,2,0,2,714,1480,255,1277,71,71,0,71,1.15,3.15,0.54,1.90
2013-10-21 22:30:00,2,1323,71,2.42,2,2,0,2,915,1798,248,1376,71,71,0,71,1.60,3.80,0.68,2.35
2013-10-21 22:40:00,2,1291,71,2.07,2,2,0,2,957,1765,236,1310,71,71,0,71,1.20,3.30,0.58,2.05
2013-10-21 22:50:00,2,988,71,3.79,2,2,0,2,680,1502,233,1017,71,71,0,71,1.90,5.10,0.99,4.10
2013-10-21 23:00:00,2,636,72,5.58,1,2,0,2,359,878,159,687,71,72,0,72,4.75,6.70,0.64,5.53
2013-10-21 23:10:00,1,,,,1,1,0,1,,,,,,,,,,,,
2013-10-21 23:20:00,1,,,,1,1,0,1,,,,,,,,,,,,
2013-10-21 23:30:00,1,,,,1,1,0,1,,,,,,,,,,,,
2013-10-21 23:40:00,1,,,,1,1,0,1,,,,,,,,,,,,
2013-10-21 23:50:00,1,,,,1,1,0,1,,,,,,,,,,,,
